sat.trackr.live / text

‹ back to catalog

STARLINK-35121

NORAD 65737 · 2025-216D

PAYLOAD ACTIVE UNKNOWN

§ Identity

Operator
Country
US
Launch date
2025-09-25
Launch site
AFETR
Launch vehicle
Mass (kg)
RCS (m²)

Purposes: comms

External: N2YO · Heavens-Above · Gunter

§ Orbital elements

Epoch: 2026-05-24T19:15:10.026432Z

Period
94.10 min
Inclination
53.1620°
Eccentricity
0.0001696
Mean motion
15.30207552 rev/d
Perigee alt
474.0 km
Apogee alt
476.4 km
Semi-major
6,853.3 km
B*
6.4367e-4
RAAN
339.5765°
Arg perigee
88.3302°
Mean anomaly
271.7893°
Rev number
3,819

§ Raw data

STARLINK-351211 65737U 25216D   26144.80219938  .00018757  00000+0  64367-3 0  99972 65737  53.1620 339.5765 0001696  88.3302 271.7893 15.30207552 38199

JSON: /api/v1/satellites/65737 · /tle

For live sub-satellite position, see the globe view (requires WebGL).

§ Visibility from observer

Set your observer location to see the next 7 days of passes ≥ 10°. The values pass through the URL so the page stays shareable.

No JS? Fill the form by hand. The geolocation button needs JavaScript.